Regional Weather Roundup
Issued by NWS Mobile, AL

Home | Current Version | Previous Version | Text Only | Print | Product List | Glossary On
Versions: 1 2 3 4 5 6 7 8 9 10 11 12 13 14 15 16 17 18 19 20 21 22 23 24 25 26 27 28 29 30 31 32 33 34 35 36 37 38 39 40 41 42 43 44 45 46 47 48 49 50
000
ASUS44 KMOB 011217
RWRMOB
REGIONAL WEATHER ROUNDUP
NATIONAL WEATHER SERVICE MOBILE AL
700 AM CDT SAT AUG 01 2015

ALZ061>064-011300-
COASTAL ALABAMA


CITY           SKY/WX    TMP DP  RH WIND       PRES   REMARKS
MOBILE REG APT PTCLDY    73  64  73 NE9       29.90R
6HR MIN TEMP:  73; 6HR MAX TEMP:  76;

BROOKLEY FIELD CLEAR     75  66  73 N7        29.90R
6HR MIN TEMP:  75; 6HR MAX TEMP:  80;

GULF SHORES    SUNNY     73  71  93 NE3       29.87S
6HR MIN TEMP:  72; 6HR MAX TEMP:  76;


$$

ALZ051>060-011300-
INTERIOR SOUTHWEST AND SOUTH CENTRAL ALABAMA


CITY           SKY/WX    TMP DP  RH WIND       PRES   REMARKS
ANDALUSIA/OPP  PTSUNNY   77  72  84 CALM      29.91S
6HR MIN TEMP:  76; 6HR MAX TEMP:  78;

EVERGREEN      SUNNY     73  70  90 CALM      29.92R
6HR MIN TEMP:  70; 6HR MAX TEMP:  74;

FLORALA        MOSUNNY   74  72  93 NE3       29.92R
6HR MIN TEMP:  73; 6HR MAX TEMP:  74;

GREENVILLE     FAIR      73  67  81 N5        29.92S
6HR MIN TEMP:  72; 6HR MAX TEMP:  77;


$$

FLZ001>006-011300-
WESTERN FLORIDA PANHANDLE


CITY           SKY/WX    TMP DP  RH WIND       PRES   REMARKS
CRESTVIEW      CLOUDY    75  74  96 NE7       29.90R FOG
6HR MIN TEMP:  75; 6HR MAX TEMP:  77;

DESTIN         SUNNY     79  76  90 NE7       29.86S
6HR MIN TEMP:  79; 6HR MAX TEMP:  82;

DUKE FIELD     FAIR      75  73  94 NE3       29.87S
MARY ESTHER    SUNNY     77  73  88 NE7       29.85S
6HR MIN TEMP:  76; 6HR MAX TEMP:  77;

MILTON         MOSUNNY   77  74  90 N9        29.88R
6HR MIN TEMP:  75; 6HR MAX TEMP:  78;

PENSACOLA      SUNNY     76  75  97 N7        29.86F
6HR MIN TEMP:  75; 6HR MAX TEMP:  76;

NAS PENSACOLA  CLEAR     78  75  90 N7        29.86S
6HR MIN TEMP:  74; 6HR MAX TEMP:  78;

VALPARAISO     MOSUNNY   77  74  89 NE6       29.86S
6HR MIN TEMP:  76; 6HR MAX TEMP:  80;


$$

...MARINE OBSERVATIONS...

STATION/POSITION TIME  SKY/WX   TEMP    WIND        PRES    VSBY
                                AIR SEA DIR/SP/G
                 (UTC)          (F)     (DEG/KT/KT) (MB)    (MI)
PASCAGOULA       1100            75     360/  7/  9 1011.3R
PETIT BOIS ISL   1100            79      30/ 12/ 15 1011.6F
E DAUPHIN ISLAND 1200            80      30/ 13/ 14 1011.3R
MIDDLE BAY LIGHT 1100            79      40/ 11     1011.2R
USCG MOBILE BAY  1100            76 84   20/  4/  7 1010.9R
STATE DOCKS      1100            76 86              1011.6R
MEAHER PARK      1200            74     360/  4     1011.9R
12 S ORANGE BCH  1150            81 85   30/ 12/ 14 1010.2S
WVE H/P(F/S)=  1/ 9

PENSACOLA BAY    1100            78 85   10/  4/  6 1011.5R
64 S DAUPHIN ISL 1150            84 87   10/  4/  6 1011.0R
WVE H/P(F/S)=  1/ 4

67 S FORT MORGAN 1130            81      20/  6     1010.8R
115 SE PENSACOLA 1150            82 86  290/  4/  4 1011.1R
WVE H/P(F/S)=  4/ 7

MID GULF/42001   1150            84 84  230/ 12/ 14 1013.9R
WVE H/P(F/S)=  3/ 5

EAST GULF/42003  1150            84 84  210/ 12/ 16 1013.5S
WVE H/P(F/S)=  3/ 5


$$

...NEARBY LOCATIONS

CITY           SKY/WX    TMP DP  RH WIND       PRES   REMARKS
GULFPORT       CLEAR     74  62  66 N9        29.88R
6HR MIN TEMP:  73; 6HR MAX TEMP:  78;

BILOXI         CLEAR     75  63  66 N9        29.88R
6HR MIN TEMP:  74; 6HR MAX TEMP:  78;

PASCAGOULA     CLEAR     72  64  76 N6        29.88S
6HR MIN TEMP:  71; 6HR MAX TEMP:  76;

HATTIESBURG    CLEAR     71  64  78 W3        29.94R
6HR MIN TEMP:  68; 6HR MAX TEMP:  73;

LAUREL         CLEAR     70  61  73 N8        29.96R
6HR MIN TEMP:  70; 6HR MAX TEMP:  73;

MERIDIAN       CLEAR     69  63  81 N6        29.97S
6HR MIN TEMP:  66; 6HR MAX TEMP:  73;

MERIDIAN NAS   CLEAR     69  63  81 N3        29.98R
6HR MIN TEMP:  68; 6HR MAX TEMP:  76;

MONTGOMERY     MOSUNNY   74  64  71 N6        29.93R
6HR MIN TEMP:  72; 6HR MAX TEMP:  79;

MAXWELL AFB    MOSUNNY   73  63  72 N7        29.93R
6HR MIN TEMP:  71; 6HR MAX TEMP:  78;

TROY           SUNNY     74  71  91 NW3       29.93R
6HR MIN TEMP:  72; 6HR MAX TEMP:  76;

FORT RUCKER    FOG       74  72  93 CALM      29.90R VSB 3/4
6HR MIN TEMP:  72; 6HR MAX TEMP:  75;

DALEVILLE      MOSUNNY   73  73 100 N3        29.90S FOG
6HR MIN TEMP:  73; 6HR MAX TEMP:  75;

DOTHAN         SUNNY     75  73  93 NE3       29.94R
6HR MIN TEMP:  73; 6HR MAX TEMP:  75;


$$

...OTHER SURROUNDING LOCATIONS...

CITY           SKY/WX    TMP DP  RH WIND       PRES   REMARKS
BIRMINGHAM     PTSUNNY   69  61  75 N6        30.01R
6HR MIN TEMP:  67; 6HR MAX TEMP:  77;

TUSCALOOSA     MOSUNNY   67  62  84 CALM      29.99R
6HR MIN TEMP:  64; 6HR MAX TEMP:  72;

COLUMBUS GA    CLOUDY    72  72 100 NE3       29.92S FOG
6HR MIN TEMP:  72; 6HR MAX TEMP:  74;

PANAMA CITY    NOT AVBL
TALLAHASSEE    PTSUNNY   79  76  90 CALM      29.87F
6HR MIN TEMP:  78; 6HR MAX TEMP:  82; 6HR PCP:  0.01;

BATON ROUGE    CLEAR     73  63  70 MISG      29.93R
6HR MIN TEMP:  71; 6HR MAX TEMP:  76;

NEW ORLEANS    PTCLDY    81  64  56 NE15      29.89R
6HR MIN TEMP:  80; 6HR MAX TEMP:  85;

SLIDELL        CLEAR     69  67  93 N5        29.89R
6HR MIN TEMP:  67; 6HR MAX TEMP:  72;

JACKSON        PTCLDY    74  64  71 N8        29.98S
6HR MIN TEMP:  74; 6HR MAX TEMP:  79;

MCCOMB         CLEAR     72  64  76 N7        29.96R
6HR MIN TEMP:  71; 6HR MAX TEMP:  76;


$$

...SURROUNDING MARINE OBSERVATIONS...

STATION/POSITION TIME  SKY/WX   TEMP    WIND        PRES    VSBY
                                AIR SEA DIR/SP/G
                 (UTC)          (F)     (DEG/KT/KT) (MB)    (MI)
WAVELAND         1100            76 83   30/ 14/ 19 1011.9F
PASCAGOULA RGN A 1100            76      20/  9/ 10 1010.9S
PASCAGOULA PORT  1100               86                N/A
GRAND ISLE       1100            84 90   20/ 11/ 14 1011.2R
SOUTHWEST PASS   1200                   120/  2/  2   N/A
PILOT STATION E  1100            80 86   CALM  /  2 1011.6R
SHELL BEACH      1100            81 87   20/ 16/ 19 1010.7S
PANAMA CITY      1100            77 86   40/  6/  8 1010.7R
APALACHICOLA     1100            80 87   20/  3/  4 1011.2R
TYNDALL TOWER C  1200            82     270/  8/  9 1011.0F
S APLCHCLA/42036 1150            85 85  220/ 19/ 23 1011.4R
WVE H/P(F/S)=  7/ 6


$$



USA.gov is the U.S. government's official web portal to all federal, state and local government web resources and services.